Location: Sluknov
(51.0170°N, 14.4670°E)
Time: 11:21:07
(UTC+01:00)

ISS - Pass Details

Date: 18 February 2026
Orbit: 416 x 426 km, 51.6° (Epoch: 10 March)

Event Time Altitude Azimuth Distance (km) Brightness Sun altitude
Exits shadow 06:27:26 - 259° (WSW) 1,630 -1.4 -7.2°
Reaches altitude 10° 06:27:46 10° 259° (W) 1,493 -1.5 -7.2°
Maximum altitude 06:31:07 89° 323° (NW) 422 -3.8 -6.7°
Drops below altitude 10° 06:34:29 10° 80° (E) 1,493 0.4 -6.1°
Sets 06:36:34 0° 80° (E) 2,357 1.6 -5.8°
